This is the latest recevied weather packets stored in our database for station/object JS2WAD-13. If no packets are shown the sender has not sent any weather packets the latest 10 day(s).
| Time | Temp. | Humidity | Pressure | Rain* | Wind** | Luminosity | Snow |
|---|---|---|---|---|---|---|---|
| 1777753591 | 17.78° C | 65% | 903.6 hPa | 0 mm | - | 7 W/m² | - |
| 1777752691 | 17.78° C | 65% | 903.4 hPa | 0 mm | - | 0 W/m² | - |
| 1777752391 | 17.78° C | 64% | 903.3 hPa | 0 mm | - | 0 W/m² | - |
| 1777752091 | 17.78° C | 64% | 903.3 hPa | 0 mm | - | 0 W/m² | - |
| 1777751791 | 17.78° C | 64% | 903.3 hPa | 0 mm | - | 0 W/m² | - |
| 1777751492 | 17.78° C | 67% | 903.2 hPa | 0 mm | - | 0 W/m² | - |
| 1777751192 | 17.78° C | 68% | 903 hPa | 0 mm | - | 0 W/m² | - |
| 1777750592 | 17.78° C | 66% | 903.2 hPa | 0 mm | - | 0 W/m² | - |
| 1777750292 | 17.78° C | 66% | 903.3 hPa | 0 mm | - | 0 W/m² | - |
| 1777749992 | 17.78° C | 65% | 903.3 hPa | 0 mm | - | 0 W/m² | - |
| 1777749692 | 17.78° C | 65% | 903.3 hPa | 0 mm | - | 0 W/m² | - |
| 1777749392 | 17.78° C | 65% | 903.3 hPa | 0 mm | - | 0 W/m² | - |
| 1777748792 | 17.78° C | 68% | 903.2 hPa | 0 mm | - | 0 W/m² | - |
| 1777748492 | 17.78° C | 69% | 903.2 hPa | 0 mm | - | 0 W/m² | - |
| 1777748192 | 17.78° C | 69% | 903.3 hPa | 0 mm | - | 0 W/m² | - |
| 1777747592 | 17.78° C | 70% | 903.5 hPa | 0 mm | - | 0 W/m² | - |
| 1777746992 | 17.78° C | 68% | 903.4 hPa | 0 mm | - | 0 W/m² | - |
| 1777746692 | 17.78° C | 68% | 903.5 hPa | 0 mm | - | 0 W/m² | - |
| 1777746392 | 17.78° C | 68% | 903.5 hPa | 0 mm | - | 0 W/m² | - |
| 1777745792 | 17.78° C | 68% | 903.5 hPa | 0 mm | - | 0 W/m² | - |
| 1777745492 | 17.78° C | 71% | 903.4 hPa | 0 mm | - | 0 W/m² | - |
| 1777745192 | 17.78° C | 72% | 903.4 hPa | 0 mm | - | 0 W/m² | - |
| 1777744592 | 17.78° C | 70% | 903.3 hPa | 0 mm | - | 0 W/m² | - |
| 1777743392 | 18.33° C | 72% | 903.5 hPa | 0 mm | - | 0 W/m² | - |
| 1777742792 | 18.33° C | 70% | 903.6 hPa | 0 mm | - | 0 W/m² | - |
* Rain latest hour (hover to see other rain measurements)
** Current wind speed in m/s (hover to see current wind gust speed)